N51CP KAMA-KASE

Flight info

Callsign N51CP
Flight time 1h 38m
Altitude 28000
Route LAA FQF MMARY MMARY1
Aircraft TBM9/L-SDFGRWY/S

Departure

Time 2026-05-04 12:31
Airport Rick Husband Amarillo International Airport (KAMA)

Arrival

Time 2026-05-04 14:10
Airport Aspen-Pitkin County Airport (Sardy Field) (KASE)
Time Latitude Longitude Altitude Speed Heading
2026-05-04 12:23 35.22324 -101.70257 3615 ft 0 kts 219°
2026-05-04 12:28 35.22311 -101.70281 3615 ft 11 kts 246°
2026-05-04 12:28 35.22293 -101.70388 3615 ft 15 kts 300°
2026-05-04 12:28 35.22377 -101.70394 3613 ft 16 kts 48°
2026-05-04 12:28 35.22457 -101.70295 3612 ft 20 kts 45°
2026-05-04 12:29 35.22570 -101.70152 3609 ft 25 kts 46°
2026-05-04 12:29 35.22697 -101.69993 3609 ft 27 kts 45°
2026-05-04 12:29 35.22813 -101.69847 3611 ft 16 kts 40°
2026-05-04 12:29 35.22913 -101.69846 3612 ft 16 kts 322°
2026-05-04 12:30 35.22993 -101.69939 3614 ft 15 kts 314°
2026-05-04 12:30 35.23047 -101.70046 3614 ft 15 kts 259°
2026-05-04 12:30 35.22957 -101.70190 3610 ft 40 kts 227°
2026-05-04 12:30 35.22649 -101.70584 3628 ft 83 kts 229°
2026-05-04 12:31 35.22170 -101.71129 3811 ft 105 kts 221°
2026-05-04 12:31 35.21576 -101.71718 4182 ft 113 kts 224°
2026-05-04 12:31 35.20929 -101.72339 4545 ft 119 kts 234°
2026-05-04 12:31 35.20754 -101.73199 4989 ft 105 kts 292°
2026-05-04 12:32 35.21344 -101.73789 5344 ft 119 kts 321°
2026-05-04 12:32 35.22753 -101.74837 6203 ft 116 kts 320°
2026-05-04 12:32 35.23430 -101.75390 6584 ft 118 kts 320°
2026-05-04 12:33 35.24108 -101.75946 6965 ft 119 kts 320°
2026-05-04 12:33 35.24907 -101.76302 7328 ft 131 kts 345°
2026-05-04 12:33 35.25816 -101.76407 7714 ft 129 kts 339°
2026-05-04 12:33 35.26672 -101.76725 8109 ft 128 kts 335°
2026-05-04 12:34 35.27542 -101.77017 8506 ft 130 kts 337°
2026-05-04 12:34 35.28426 -101.77295 8914 ft 132 kts 338°
2026-05-04 12:34 35.29309 -101.77566 9318 ft 133 kts 338°
2026-05-04 12:34 35.30211 -101.77839 9733 ft 134 kts 338°
2026-05-04 12:35 35.31122 -101.78116 10119 ft 135 kts 338°
2026-05-04 12:35 35.32039 -101.78392 10517 ft 135 kts 337°
2026-05-04 12:35 35.32947 -101.78666 10918 ft 136 kts 337°
2026-05-04 12:35 35.33873 -101.78947 11295 ft 137 kts 336°
2026-05-04 12:36 35.34804 -101.79229 11687 ft 138 kts 336°
2026-05-04 12:36 35.35747 -101.79514 12079 ft 140 kts 336°
2026-05-04 12:36 35.36693 -101.79800 12480 ft 141 kts 336°
2026-05-04 12:36 35.37649 -101.80089 12885 ft 142 kts 335°
2026-05-04 12:37 35.38599 -101.80377 13288 ft 142 kts 335°
2026-05-04 12:37 35.39569 -101.80670 13696 ft 144 kts 335°
2026-05-04 12:37 35.40544 -101.80965 14046 ft 145 kts 335°
2026-05-04 12:37 35.41515 -101.81259 14396 ft 146 kts 335°
2026-05-04 12:38 35.42511 -101.81561 14761 ft 147 kts 335°
2026-05-04 12:38 35.43497 -101.81860 15129 ft 148 kts 335°
2026-05-04 12:38 35.44503 -101.82165 15498 ft 149 kts 335°
2026-05-04 12:38 35.45511 -101.82471 15874 ft 150 kts 335°
2026-05-04 12:39 35.46518 -101.82776 16240 ft 151 kts 335°
2026-05-04 12:39 35.47544 -101.83088 16602 ft 152 kts 336°
2026-05-04 12:39 35.48602 -101.83412 16781 ft 167 kts 336°
2026-05-04 12:39 35.49796 -101.83777 16786 ft 190 kts 338°
2026-05-04 12:40 35.51154 -101.84182 16782 ft 210 kts 339°
2026-05-04 12:40 35.52636 -101.84623 16772 ft 226 kts 340°
2026-05-04 12:40 35.54221 -101.85100 16760 ft 240 kts 340°
2026-05-04 12:40 35.55873 -101.85600 16769 ft 249 kts 340°
2026-05-04 12:41 35.57540 -101.86107 16995 ft 249 kts 340°
2026-05-04 12:41 35.59234 -101.86622 17205 ft 251 kts 340°
2026-05-04 12:41 35.60936 -101.87138 17425 ft 251 kts 340°
2026-05-04 12:41 35.62621 -101.87652 17621 ft 252 kts 340°
2026-05-04 12:42 35.64332 -101.88176 17835 ft 253 kts 340°
2026-05-04 12:42 35.66047 -101.88699 18056 ft 254 kts 340°
2026-05-04 12:42 35.67772 -101.89224 18221 ft 256 kts 340°
2026-05-04 12:42 35.69502 -101.89751 18408 ft 256 kts 340°
2026-05-04 12:43 35.71239 -101.90282 18595 ft 257 kts 340°
2026-05-04 12:43 35.72956 -101.90806 18782 ft 257 kts 340°
2026-05-04 12:43 35.74702 -101.91340 18959 ft 258 kts 340°
2026-05-04 12:43 35.76449 -101.91875 19142 ft 258 kts 340°
2026-05-04 12:44 35.78198 -101.92409 19317 ft 258 kts 340°
2026-05-04 12:44 35.79945 -101.92944 19490 ft 259 kts 340°
2026-05-04 12:44 35.81676 -101.93473 19660 ft 259 kts 340°
2026-05-04 12:44 35.83439 -101.94014 19822 ft 260 kts 340°
2026-05-04 12:45 35.85201 -101.94554 19985 ft 260 kts 340°
2026-05-04 12:45 35.86961 -101.95093 20015 ft 261 kts 340°
2026-05-04 12:45 35.88702 -101.95627 20178 ft 261 kts 340°
2026-05-04 12:45 35.90467 -101.96170 20360 ft 262 kts 340°
2026-05-04 12:46 35.92244 -101.96714 20520 ft 262 kts 340°
2026-05-04 12:46 35.94022 -101.97261 20677 ft 263 kts 340°
2026-05-04 12:46 35.95805 -101.97808 20835 ft 263 kts 340°
2026-05-04 12:46 35.97570 -101.98351 20993 ft 264 kts 340°
2026-05-04 12:47 35.99362 -101.98902 21143 ft 264 kts 340°
2026-05-04 12:47 36.01152 -101.99453 21302 ft 265 kts 340°
2026-05-04 12:47 36.02921 -101.99998 21454 ft 265 kts 339°
2026-05-04 12:47 36.04718 -102.00552 21601 ft 266 kts 339°
2026-05-04 12:48 36.06520 -102.01107 21754 ft 266 kts 339°
2026-05-04 12:48 36.08309 -102.01658 21908 ft 267 kts 339°
2026-05-04 12:48 36.10115 -102.02215 22058 ft 267 kts 339°
2026-05-04 12:48 36.11927 -102.02774 22205 ft 268 kts 339°
2026-05-04 12:49 36.13741 -102.03334 22347 ft 268 kts 339°
2026-05-04 12:49 36.15561 -102.03897 22475 ft 270 kts 339°
2026-05-04 12:49 36.17368 -102.04455 22619 ft 270 kts 339°
2026-05-04 12:49 36.19196 -102.05019 22772 ft 270 kts 339°
2026-05-04 12:50 36.21030 -102.05587 22915 ft 271 kts 339°
2026-05-04 12:50 36.22860 -102.06154 23053 ft 271 kts 339°
2026-05-04 12:50 36.24673 -102.06715 23186 ft 272 kts 339°
2026-05-04 12:50 36.26515 -102.07285 23316 ft 272 kts 339°
2026-05-04 12:51 36.28357 -102.07856 23430 ft 272 kts 339°
2026-05-04 12:51 36.30200 -102.08428 23545 ft 273 kts 339°
2026-05-04 12:51 36.32023 -102.08993 23661 ft 273 kts 339°
2026-05-04 12:51 36.33869 -102.09565 23771 ft 273 kts 339°
2026-05-04 12:52 36.35716 -102.10140 23890 ft 273 kts 339°
2026-05-04 12:52 36.36937 -102.10518 23968 ft 273 kts 339°
2026-05-04 12:52 36.39399 -102.11284 24115 ft 274 kts 339°
2026-05-04 12:52 36.40630 -102.11667 24181 ft 275 kts 339°
2026-05-04 12:53 36.42485 -102.12244 24296 ft 275 kts 339°
2026-05-04 12:53 36.44949 -102.13011 24449 ft 275 kts 338°
2026-05-04 12:53 36.46209 -102.13403 24524 ft 275 kts 338°
2026-05-04 12:53 36.48040 -102.13973 24632 ft 275 kts 338°
2026-05-04 12:54 36.49902 -102.14554 24736 ft 275 kts 338°
2026-05-04 12:54 36.51763 -102.15134 24847 ft 275 kts 338°
2026-05-04 12:54 36.53602 -102.15707 24959 ft 275 kts 338°
2026-05-04 12:54 36.55459 -102.16288 25063 ft 275 kts 338°
2026-05-04 12:55 36.57322 -102.16870 25168 ft 275 kts 338°
2026-05-04 12:55 36.59179 -102.17449 25274 ft 275 kts 338°
2026-05-04 12:55 36.61044 -102.18032 25397 ft 275 kts 337°
2026-05-04 12:55 36.62885 -102.18608 25497 ft 275 kts 337°
2026-05-04 12:56 36.64749 -102.19190 25607 ft 275 kts 337°
2026-05-04 12:56 36.66586 -102.19766 25709 ft 275 kts 337°
2026-05-04 12:56 36.68445 -102.20348 25808 ft 275 kts 337°
2026-05-04 12:56 36.70308 -102.20933 25903 ft 275 kts 337°
2026-05-04 12:57 36.72169 -102.21516 25998 ft 275 kts 337°
2026-05-04 12:57 36.74005 -102.22092 26096 ft 275 kts 337°
2026-05-04 12:57 36.75868 -102.22676 26192 ft 275 kts 336°
2026-05-04 12:57 36.77731 -102.23261 26284 ft 275 kts 336°
2026-05-04 12:58 36.79570 -102.23839 26376 ft 275 kts 336°
2026-05-04 12:58 36.81427 -102.24423 26470 ft 275 kts 336°
2026-05-04 12:58 36.83292 -102.25009 26562 ft 275 kts 336°
2026-05-04 12:58 36.85150 -102.25594 26670 ft 275 kts 336°
2026-05-04 12:59 36.86989 -102.26173 26756 ft 275 kts 336°
2026-05-04 12:59 36.88846 -102.26758 26843 ft 275 kts 336°
2026-05-04 12:59 36.90707 -102.27344 26941 ft 275 kts 336°
2026-05-04 12:59 36.92563 -102.27929 27029 ft 275 kts 336°
2026-05-04 13:00 36.94392 -102.28506 27112 ft 275 kts 336°
2026-05-04 13:00 36.96249 -102.29093 27197 ft 275 kts 336°
2026-05-04 13:00 36.98109 -102.29679 27280 ft 275 kts 336°
2026-05-04 13:00 36.99945 -102.30259 27355 ft 275 kts 336°
2026-05-04 13:01 37.01799 -102.30845 27427 ft 275 kts 335°
2026-05-04 13:01 37.03656 -102.31433 27495 ft 275 kts 335°
2026-05-04 13:01 37.05512 -102.32020 27565 ft 275 kts 335°
2026-05-04 13:01 37.07371 -102.32609 27664 ft 275 kts 335°
2026-05-04 13:02 37.09238 -102.33201 27685 ft 277 kts 335°
2026-05-04 13:02 37.11117 -102.33797 27685 ft 279 kts 335°
2026-05-04 13:02 37.12990 -102.34390 27686 ft 281 kts 335°
2026-05-04 13:02 37.14895 -102.34993 27687 ft 282 kts 335°
2026-05-04 13:03 37.16805 -102.35600 27693 ft 283 kts 335°
2026-05-04 13:03 37.18698 -102.36200 27693 ft 284 kts 335°
2026-05-04 13:03 37.20618 -102.36810 27693 ft 284 kts 336°
2026-05-04 13:03 37.22543 -102.37422 27693 ft 285 kts 336°
2026-05-04 13:04 37.24469 -102.38034 27692 ft 285 kts 336°
2026-05-04 13:04 37.26400 -102.38649 27692 ft 286 kts 336°
2026-05-04 13:04 37.28330 -102.39263 27691 ft 286 kts 336°
2026-05-04 13:04 37.30241 -102.39872 27711 ft 286 kts 335°
2026-05-04 13:05 37.32181 -102.40490 27702 ft 287 kts 335°
2026-05-04 13:05 37.34125 -102.41110 27695 ft 287 kts 335°
2026-05-04 13:05 37.36043 -102.41722 27694 ft 288 kts 335°
2026-05-04 13:05 37.37986 -102.42343 27693 ft 288 kts 335°
2026-05-04 13:06 37.39933 -102.42964 27693 ft 288 kts 335°
2026-05-04 13:06 37.41892 -102.43590 27692 ft 289 kts 335°
2026-05-04 13:06 37.43821 -102.44207 27688 ft 289 kts 335°
2026-05-04 13:06 37.45777 -102.44832 27687 ft 289 kts 335°
2026-05-04 13:07 37.47729 -102.45457 27687 ft 289 kts 335°
2026-05-04 13:07 37.49685 -102.46083 27686 ft 289 kts 335°
2026-05-04 13:07 37.51641 -102.46710 27686 ft 289 kts 335°
2026-05-04 13:07 37.53569 -102.47328 27699 ft 289 kts 335°
2026-05-04 13:08 37.55526 -102.47956 27698 ft 290 kts 335°
2026-05-04 13:08 37.57489 -102.48586 27693 ft 290 kts 335°
2026-05-04 13:08 37.59425 -102.49207 27690 ft 290 kts 335°
2026-05-04 13:08 37.61384 -102.49837 27697 ft 290 kts 335°
2026-05-04 13:09 37.63342 -102.50466 27697 ft 290 kts 335°
2026-05-04 13:09 37.65299 -102.51095 27695 ft 290 kts 335°
2026-05-04 13:09 37.67262 -102.51728 27694 ft 290 kts 335°
2026-05-04 13:09 37.69196 -102.52350 27692 ft 290 kts 335°
2026-05-04 13:10 37.71157 -102.52981 27700 ft 290 kts 335°
2026-05-04 13:10 37.73118 -102.53614 27701 ft 290 kts 335°
2026-05-04 13:10 37.75082 -102.54246 27699 ft 290 kts 335°
2026-05-04 13:10 37.77040 -102.54880 27700 ft 290 kts 335°
2026-05-04 13:11 37.78981 -102.55505 27696 ft 290 kts 335°
2026-05-04 13:11 37.80947 -102.56141 27698 ft 290 kts 335°
2026-05-04 13:11 37.82912 -102.56776 27694 ft 290 kts 335°
2026-05-04 13:11 37.84850 -102.57402 27700 ft 291 kts 335°
2026-05-04 13:12 37.86817 -102.58038 27694 ft 291 kts 335°
2026-05-04 13:12 37.88781 -102.58675 27700 ft 291 kts 335°
2026-05-04 13:12 37.90727 -102.59306 27700 ft 292 kts 335°
2026-05-04 13:12 37.92709 -102.59948 27699 ft 293 kts 335°
2026-05-04 13:13 37.94691 -102.60589 27700 ft 294 kts 335°
2026-05-04 13:13 37.96679 -102.61234 27700 ft 294 kts 335°
2026-05-04 13:13 37.98644 -102.61873 27870 ft 295 kts 336°
2026-05-04 13:13 38.00640 -102.62522 27873 ft 296 kts 336°
2026-05-04 13:14 38.02645 -102.63172 27874 ft 296 kts 336°
2026-05-04 13:14 38.04625 -102.63817 27873 ft 297 kts 336°
2026-05-04 13:14 38.06627 -102.64467 27872 ft 297 kts 336°
2026-05-04 13:14 38.08636 -102.65122 27871 ft 297 kts 336°
2026-05-04 13:15 38.10653 -102.65778 27871 ft 298 kts 336°
2026-05-04 13:15 38.12635 -102.66425 27870 ft 298 kts 336°
2026-05-04 13:15 38.14648 -102.67081 27868 ft 298 kts 336°
2026-05-04 13:15 38.16637 -102.67805 27854 ft 294 kts 332°
2026-05-04 13:16 38.18502 -102.68802 27847 ft 288 kts 326°
2026-05-04 13:16 38.20240 -102.70048 27857 ft 284 kts 320°
2026-05-04 13:16 38.21830 -102.71516 27835 ft 281 kts 314°
2026-05-04 13:16 38.23250 -102.73164 27819 ft 279 kts 309°
2026-05-04 13:17 38.24631 -102.74921 27811 ft 279 kts 310°
2026-05-04 13:17 38.26008 -102.76642 27801 ft 280 kts 310°
2026-05-04 13:17 38.27393 -102.78377 27795 ft 278 kts 309°
2026-05-04 13:17 38.28768 -102.80109 27785 ft 278 kts 309°
2026-05-04 13:18 38.30130 -102.81829 27777 ft 278 kts 309°
2026-05-04 13:18 38.31503 -102.83560 27768 ft 278 kts 309°
2026-05-04 13:18 38.32877 -102.85293 27762 ft 278 kts 309°
2026-05-04 13:18 38.34255 -102.87031 27751 ft 278 kts 309°
2026-05-04 13:19 38.35628 -102.88765 27743 ft 277 kts 309°
2026-05-04 13:19 38.36985 -102.90479 27734 ft 277 kts 309°
2026-05-04 13:19 38.38362 -102.92221 27734 ft 278 kts 309°
2026-05-04 13:19 38.39739 -102.93962 27732 ft 278 kts 309°
2026-05-04 13:20 38.41112 -102.95702 27751 ft 279 kts 310°
2026-05-04 13:20 38.42476 -102.97431 27748 ft 281 kts 310°
2026-05-04 13:20 38.43869 -102.99193 27747 ft 282 kts 310°
2026-05-04 13:20 38.45267 -103.00964 27746 ft 283 kts 310°
2026-05-04 13:21 38.46668 -103.02741 27746 ft 284 kts 310°
2026-05-04 13:21 38.48073 -103.04524 27745 ft 285 kts 310°
2026-05-04 13:21 38.49486 -103.06318 27753 ft 285 kts 310°
2026-05-04 13:21 38.50896 -103.08110 27753 ft 286 kts 310°
2026-05-04 13:22 38.52295 -103.09888 27752 ft 286 kts 310°
2026-05-04 13:22 38.53710 -103.11688 27751 ft 286 kts 310°
2026-05-04 13:22 38.55127 -103.13492 27739 ft 285 kts 308°
2026-05-04 13:22 38.56520 -103.15263 27749 ft 282 kts 309°
2026-05-04 13:23 38.57894 -103.17017 27748 ft 282 kts 309°
2026-05-04 13:23 38.59284 -103.18791 27748 ft 283 kts 309°
2026-05-04 13:23 38.60683 -103.20576 27760 ft 284 kts 309°
2026-05-04 13:23 38.62087 -103.22371 27758 ft 285 kts 309°
2026-05-04 13:24 38.63475 -103.24142 27758 ft 286 kts 309°
2026-05-04 13:24 38.64888 -103.25946 27762 ft 287 kts 309°
2026-05-04 13:24 38.66302 -103.27754 27762 ft 287 kts 309°
2026-05-04 13:25 38.69138 -103.31384 27759 ft 288 kts 309°
2026-05-04 13:25 38.70560 -103.33206 27758 ft 288 kts 309°
2026-05-04 13:25 38.71966 -103.35008 27757 ft 289 kts 309°
2026-05-04 13:25 38.73389 -103.36834 27750 ft 289 kts 309°
2026-05-04 13:26 38.74813 -103.38661 27752 ft 289 kts 309°
2026-05-04 13:26 38.76217 -103.40464 27751 ft 289 kts 309°
2026-05-04 13:26 38.77637 -103.42288 27750 ft 289 kts 309°
2026-05-04 13:26 38.79060 -103.44118 27751 ft 289 kts 309°
2026-05-04 13:27 38.80482 -103.45948 27771 ft 290 kts 310°
2026-05-04 13:27 38.81913 -103.47793 27768 ft 291 kts 310°
2026-05-04 13:27 38.83326 -103.49612 27745 ft 292 kts 309°
2026-05-04 13:27 38.84768 -103.51468 27743 ft 292 kts 309°
2026-05-04 13:28 38.86203 -103.53317 27749 ft 293 kts 309°
2026-05-04 13:28 38.87644 -103.55180 27748 ft 293 kts 309°
2026-05-04 13:28 38.89064 -103.57012 27751 ft 293 kts 309°
2026-05-04 13:28 38.90506 -103.58875 27749 ft 293 kts 309°
2026-05-04 13:29 38.91945 -103.60734 27747 ft 293 kts 309°
2026-05-04 13:29 38.93386 -103.62598 27755 ft 293 kts 309°
2026-05-04 13:29 38.94823 -103.64459 27753 ft 293 kts 309°
2026-05-04 13:29 38.96247 -103.66302 27765 ft 293 kts 309°
2026-05-04 13:30 38.97689 -103.68172 27778 ft 293 kts 309°
2026-05-04 13:30 38.99107 -103.70009 27784 ft 293 kts 309°
2026-05-04 13:30 39.00550 -103.71885 27806 ft 294 kts 309°
2026-05-04 13:30 39.02000 -103.73767 27811 ft 295 kts 310°
2026-05-04 13:31 39.03433 -103.75626 27819 ft 296 kts 310°
2026-05-04 13:31 39.04883 -103.77511 27823 ft 296 kts 310°
2026-05-04 13:31 39.06343 -103.79409 27827 ft 297 kts 310°
2026-05-04 13:31 39.07797 -103.81302 27829 ft 297 kts 310°
2026-05-04 13:32 39.09243 -103.83185 27830 ft 297 kts 310°
2026-05-04 13:32 39.10701 -103.85086 27830 ft 297 kts 310°
2026-05-04 13:32 39.12153 -103.86977 27833 ft 296 kts 309°
2026-05-04 13:32 39.13601 -103.88868 27831 ft 296 kts 309°
2026-05-04 13:33 39.15049 -103.90758 27830 ft 296 kts 309°
2026-05-04 13:33 39.16485 -103.92634 27825 ft 296 kts 309°
2026-05-04 13:33 39.17933 -103.94527 27819 ft 296 kts 309°
2026-05-04 13:33 39.19386 -103.96428 27826 ft 297 kts 310°
2026-05-04 13:34 39.20836 -103.98328 27819 ft 298 kts 310°
2026-05-04 13:34 39.22285 -104.00223 27811 ft 298 kts 310°
2026-05-04 13:34 39.23744 -104.02133 27803 ft 299 kts 310°
2026-05-04 13:34 39.25203 -104.04048 27794 ft 299 kts 310°
2026-05-04 13:35 39.26647 -104.05943 27790 ft 299 kts 310°
2026-05-04 13:35 39.29566 -104.09778 27758 ft 299 kts 310°
2026-05-04 13:35 39.31024 -104.11697 27756 ft 299 kts 310°
2026-05-04 13:36 39.32468 -104.13604 27756 ft 299 kts 310°
2026-05-04 13:36 39.33926 -104.15520 27755 ft 299 kts 310°
2026-05-04 13:36 39.35396 -104.17452 27759 ft 299 kts 310°
2026-05-04 13:36 39.36838 -104.19352 27758 ft 299 kts 310°
2026-05-04 13:37 39.38295 -104.21275 27778 ft 299 kts 310°
2026-05-04 13:37 39.39760 -104.23211 27769 ft 300 kts 310°
2026-05-04 13:37 39.41210 -104.25123 27769 ft 301 kts 310°
2026-05-04 13:37 39.42205 -104.26436 27763 ft 301 kts 310°
2026-05-04 13:38 39.44150 -104.29008 27761 ft 301 kts 310°
2026-05-04 13:38 39.45619 -104.30951 27760 ft 301 kts 310°
2026-05-04 13:38 39.47088 -104.32897 27763 ft 301 kts 310°
2026-05-04 13:38 39.48539 -104.34819 27774 ft 301 kts 310°
2026-05-04 13:39 39.50007 -104.36763 27789 ft 301 kts 310°
2026-05-04 13:39 39.51472 -104.38706 27797 ft 301 kts 310°
2026-05-04 13:39 39.52940 -104.40657 27806 ft 301 kts 310°
2026-05-04 13:39 39.54402 -104.42597 27817 ft 301 kts 310°
2026-05-04 13:40 39.55850 -104.44521 27828 ft 301 kts 310°
2026-05-04 13:40 39.57317 -104.46473 27844 ft 302 kts 310°
2026-05-04 13:40 39.58786 -104.48426 27855 ft 302 kts 310°
2026-05-04 13:40 39.59756 -104.49718 27858 ft 302 kts 310°
2026-05-04 13:41 39.61707 -104.52318 27875 ft 302 kts 310°
2026-05-04 13:41 39.62681 -104.53615 27883 ft 302 kts 310°
2026-05-04 13:41 39.64148 -104.55571 27890 ft 302 kts 310°
2026-05-04 13:42 39.66615 -104.59878 27865 ft 296 kts 296°
2026-05-04 13:42 39.67472 -104.62302 27880 ft 294 kts 288°
2026-05-04 13:42 39.68062 -104.64836 27896 ft 293 kts 281°
2026-05-04 13:42 39.68380 -104.67440 27887 ft 292 kts 275°
2026-05-04 13:43 39.68423 -104.70078 27888 ft 291 kts 268°
2026-05-04 13:43 39.68236 -104.72699 27890 ft 291 kts 265°
2026-05-04 13:43 39.68041 -104.75286 27890 ft 291 kts 265°
2026-05-04 13:43 39.67852 -104.77907 27892 ft 291 kts 265°
2026-05-04 13:44 39.67655 -104.80529 27891 ft 291 kts 265°
2026-05-04 13:44 39.67455 -104.83157 27891 ft 291 kts 265°
2026-05-04 13:44 39.67258 -104.85752 27890 ft 291 kts 265°
2026-05-04 13:44 39.67060 -104.88375 27915 ft 291 kts 265°
2026-05-04 13:45 39.66861 -104.90995 27913 ft 291 kts 265°
2026-05-04 13:45 39.66660 -104.93622 27914 ft 292 kts 264°
2026-05-04 13:45 39.66457 -104.96253 27903 ft 293 kts 264°
2026-05-04 13:45 39.66258 -104.98857 27896 ft 293 kts 264°
2026-05-04 13:46 39.66054 -105.01505 27828 ft 293 kts 264°
2026-05-04 13:46 39.65849 -105.04148 27834 ft 293 kts 264°
2026-05-04 13:46 39.65645 -105.06785 27828 ft 293 kts 264°
2026-05-04 13:46 39.65443 -105.09385 27824 ft 293 kts 264°
2026-05-04 13:47 39.65238 -105.12020 27824 ft 293 kts 264°
2026-05-04 13:47 39.65036 -105.14591 27821 ft 293 kts 264°
2026-05-04 13:47 39.64829 -105.17239 27821 ft 293 kts 264°
2026-05-04 13:47 39.64623 -105.19851 27816 ft 293 kts 264°
2026-05-04 13:48 39.64416 -105.22480 27814 ft 293 kts 264°
2026-05-04 13:48 39.64207 -105.25118 27807 ft 293 kts 264°
2026-05-04 13:48 39.63997 -105.27764 27801 ft 294 kts 264°
2026-05-04 13:48 39.63787 -105.30399 27798 ft 294 kts 264°
2026-05-04 13:49 39.63579 -105.33011 27786 ft 295 kts 264°
2026-05-04 13:49 39.63367 -105.35666 27778 ft 295 kts 264°
2026-05-04 13:49 39.63153 -105.38322 27784 ft 296 kts 264°
2026-05-04 13:49 39.62941 -105.40956 27781 ft 296 kts 264°
2026-05-04 13:50 39.62726 -105.43625 27780 ft 296 kts 264°
2026-05-04 13:50 39.62512 -105.46290 27778 ft 296 kts 264°
2026-05-04 13:50 39.62297 -105.48923 27775 ft 296 kts 264°
2026-05-04 13:50 39.62080 -105.51581 27803 ft 295 kts 264°
2026-05-04 13:51 39.61866 -105.54207 27800 ft 296 kts 264°
2026-05-04 13:51 39.61648 -105.56866 27801 ft 296 kts 264°
2026-05-04 13:51 39.61430 -105.59523 27803 ft 296 kts 264°
2026-05-04 13:51 39.61212 -105.62176 27803 ft 295 kts 264°
2026-05-04 13:52 39.60779 -105.67443 27824 ft 294 kts 264°
2026-05-04 13:52 39.60555 -105.70096 27625 ft 297 kts 264°
2026-05-04 13:52 39.60333 -105.72776 27249 ft 299 kts 264°
2026-05-04 13:53 39.60110 -105.75474 26858 ft 301 kts 265°
2026-05-04 13:53 39.59885 -105.78169 26460 ft 304 kts 264°
2026-05-04 13:53 39.59653 -105.80907 26070 ft 306 kts 264°
2026-05-04 13:54 39.59191 -105.86417 25261 ft 310 kts 264°
2026-05-04 13:54 39.58954 -105.89220 24851 ft 312 kts 264°
2026-05-04 13:54 39.58476 -105.94855 24038 ft 315 kts 264°
2026-05-04 13:55 39.58238 -105.97662 23621 ft 316 kts 264°
2026-05-04 13:55 39.57746 -106.03366 22743 ft 318 kts 264°
2026-05-04 13:55 39.57505 -106.06188 22324 ft 318 kts 264°
2026-05-04 13:56 39.57259 -106.09040 21916 ft 318 kts 264°
2026-05-04 13:56 39.57012 -106.11897 21496 ft 318 kts 264°
2026-05-04 13:56 39.56516 -106.17586 20662 ft 317 kts 264°
2026-05-04 13:57 39.56272 -106.20397 20248 ft 317 kts 264°
2026-05-04 13:57 39.56024 -106.23250 19843 ft 317 kts 264°
2026-05-04 13:58 39.55276 -106.31685 18605 ft 314 kts 264°
2026-05-04 13:58 39.54778 -106.37312 17759 ft 313 kts 264°
2026-05-04 13:58 39.54611 -106.40122 17358 ft 311 kts 271°
2026-05-04 13:59 39.54726 -106.42887 16948 ft 308 kts 275°
2026-05-04 13:59 39.54827 -106.45660 16508 ft 307 kts 271°
2026-05-04 13:59 39.54769 -106.51184 15838 ft 302 kts 271°
2026-05-04 14:00 39.54783 -106.53860 15834 ft 292 kts 271°
2026-05-04 14:00 39.54792 -106.58952 15831 ft 278 kts 271°
2026-05-04 14:00 39.54801 -106.61449 15826 ft 275 kts 271°
2026-05-04 14:01 39.54809 -106.63919 15841 ft 273 kts 271°
2026-05-04 14:01 39.54793 -106.66370 15812 ft 272 kts 267°
2026-05-04 14:01 39.53809 -106.71246 15092 ft 292 kts 253°
2026-05-04 14:02 39.53195 -106.73800 14649 ft 298 kts 253°
2026-05-04 14:02 39.52580 -106.76359 14201 ft 302 kts 253°
2026-05-04 14:02 39.51939 -106.78969 13748 ft 304 kts 254°
2026-05-04 14:02 39.51620 -106.81575 13457 ft 280 kts 268°
2026-05-04 14:03 39.51700 -106.84004 13452 ft 261 kts 275°
2026-05-04 14:03 39.51841 -106.86298 13440 ft 250 kts 274°
2026-05-04 14:03 39.51979 -106.88507 13589 ft 250 kts 275°
2026-05-04 14:03 39.51914 -106.90765 13585 ft 251 kts 255°
2026-05-04 14:04 39.49574 -106.93901 13517 ft 255 kts 206°
2026-05-04 14:04 39.47933 -106.94873 13246 ft 263 kts 208°
2026-05-04 14:04 39.46320 -106.96087 12892 ft 271 kts 214°
2026-05-04 14:05 39.42913 -106.97655 12189 ft 244 kts 187°
2026-05-04 14:05 39.41269 -106.97595 11933 ft 231 kts 173°
2026-05-04 14:05 39.39691 -106.97156 11661 ft 233 kts 168°
2026-05-04 14:06 39.38114 -106.96704 11329 ft 229 kts 170°
2026-05-04 14:06 39.36595 -106.96280 10955 ft 223 kts 170°
2026-05-04 14:06 39.35093 -106.95846 10645 ft 219 kts 169°
2026-05-04 14:06 39.33615 -106.95397 10333 ft 216 kts 168°
2026-05-04 14:07 39.32220 -106.94791 10071 ft 212 kts 162°
2026-05-04 14:07 39.30877 -106.94029 9691 ft 212 kts 150°
2026-05-04 14:07 39.29831 -106.92710 9438 ft 210 kts 129°
2026-05-04 14:07 39.29121 -106.91370 9235 ft 155 kts 123°
2026-05-04 14:08 39.28553 -106.90308 8913 ft 138 kts 135°
2026-05-04 14:08 39.27776 -106.89637 8719 ft 127 kts 150°
2026-05-04 14:08 39.26991 -106.89179 8616 ft 123 kts 155°
2026-05-04 14:08 39.26201 -106.88753 8410 ft 124 kts 159°
2026-05-04 14:09 39.24630 -106.87979 7937 ft 115 kts 162°
2026-05-04 14:09 39.23886 -106.87622 7747 ft 113 kts 163°
2026-05-04 14:10 39.22566 -106.87003 7732 ft 73 kts 160°
2026-05-04 14:10 39.22343 -106.86892 7745 ft 13 kts 135°
2026-05-04 14:10 39.22337 -106.86802 7746 ft 8 kts 66°
2026-05-04 14:10 39.22350 -106.86741 7750 ft 3 kts 125°
2026-05-04 14:11 39.22310 -106.86712 7751 ft 9 kts 156°
2026-05-04 14:11 39.22302 -106.86707 7751 ft 0 kts 152°